Time,TemperatureF,DewpointF,PressureIn,WindDirection,WindDirectionDegrees,WindSpeedMPH,WindSpeedGustMPH,Humidity,HourlyPrecipIn,Conditions,Clouds,dailyrainin,SoftwareType,DateUTC
2013-12-16 00:07:00,-4.7,-7.3,30.18,ENE,67,0.0,-999.0,88,-99.99,,,0.00,Acu-Link.com,2013-12-16 07:07:00,
2013-12-16 00:23:00,-4.2,-6.6,30.18,NNW,337,0.0,-999.0,89,-99.99,,,0.00,Acu-Link.com,2013-12-16 07:23:00,
2013-12-16 00:38:00,-4.0,-6.6,30.18,East,90,0.0,-999.0,88,-99.99,,,0.00,Acu-Link.com,2013-12-16 07:38:00,
2013-12-16 00:53:00,-4.7,-8.0,30.18,SSW,202,0.0,-999.0,85,-99.99,,,0.00,Acu-Link.com,2013-12-16 07:53:00,
2013-12-16 01:09:00,-5.6,-9.2,30.18,East,90,0.0,-999.0,84,-99.99,,,0.00,Acu-Link.com,2013-12-16 08:09:00,
2013-12-16 01:24:00,-6.2,-10.0,30.17,NE,45,0.0,-999.0,83,-99.99,,,0.00,Acu-Link.com,2013-12-16 08:24:00,
2013-12-16 01:39:00,-6.0,-9.3,30.18,SW,225,0.0,-999.0,85,-99.99,,,0.00,Acu-Link.com,2013-12-16 08:39:00,
2013-12-16 01:55:00,-6.2,-9.7,30.18,NE,45,0.0,-999.0,84,-99.99,,,0.00,Acu-Link.com,2013-12-16 08:55:00,
2013-12-16 02:10:00,-6.7,-10.5,30.19,NE,45,0.0,-999.0,83,-99.99,,,0.00,Acu-Link.com,2013-12-16 09:10:00,
2013-12-16 02:25:00,-7.1,-10.9,30.18,North,0,0.0,-999.0,83,-99.99,,,0.00,Acu-Link.com,2013-12-16 09:25:00,
2013-12-16 02:41:00,-6.7,-10.0,30.19,NNE,22,0.0,-999.0,85,-99.99,,,0.00,Acu-Link.com,2013-12-16 09:41:00,
2013-12-16 02:56:00,-6.9,-10.4,30.17,NW,315,0.0,-999.0,84,-99.99,,,0.00,Acu-Link.com,2013-12-16 09:56:00,
2013-12-16 03:11:00,-7.2,-11.0,30.18,WNW,292,0.0,-999.0,83,-99.99,,,0.00,Acu-Link.com,2013-12-16 10:11:00,
2013-12-16 03:26:00,-7.4,-11.4,30.18,NNW,337,0.0,-999.0,82,-99.99,,,0.00,Acu-Link.com,2013-12-16 10:26:00,
2013-12-16 03:42:00,-7.2,-11.0,30.18,NNW,337,0.0,-999.0,83,-99.99,,,0.00,Acu-Link.com,2013-12-16 10:42:00,
2013-12-16 03:57:00,-7.8,-11.8,30.18,ENE,67,0.0,-999.0,82,-99.99,,,0.00,Acu-Link.com,2013-12-16 10:57:00,
2013-12-16 04:12:00,-8.3,-12.5,30.18,ESE,112,0.0,-999.0,81,-99.99,,,0.00,Acu-Link.com,2013-12-16 11:12:00,
2013-12-16 04:27:00,-9.0,-13.2,30.18,South,180,0.0,-999.0,81,-99.99,,,0.00,Acu-Link.com,2013-12-16 11:27:00,
2013-12-16 04:43:00,-9.2,-13.4,30.18,East,90,0.0,-999.0,81,-99.99,,,0.00,Acu-Link.com,2013-12-16 11:43:00,
2013-12-16 04:58:00,-9.4,-13.4,30.17,East,90,0.0,-999.0,82,-99.99,,,0.00,Acu-Link.com,2013-12-16 11:58:00,
2013-12-16 05:13:00,-9.4,-13.4,30.17,East,90,0.0,-999.0,82,-99.99,,,0.00,Acu-Link.com,2013-12-16 12:13:00,
2013-12-16 05:28:00,-9.2,-13.2,30.17,NNW,337,0.0,-999.0,82,-99.99,,,0.00,Acu-Link.com,2013-12-16 12:28:00,
2013-12-16 05:44:00,-8.9,-12.6,30.18,NNW,337,0.0,-999.0,83,-99.99,,,0.00,Acu-Link.com,2013-12-16 12:44:00,
2013-12-16 05:59:00,-9.4,-13.6,30.19,West,270,0.0,-999.0,81,-99.99,,,0.00,Acu-Link.com,2013-12-16 12:59:00,
2013-12-16 06:14:00,-9.9,-14.3,30.19,ESE,112,0.0,-999.0,80,-99.99,,,0.00,Acu-Link.com,2013-12-16 13:14:00,
2013-12-16 06:29:00,-10.1,-14.3,30.19,SSE,157,0.0,-999.0,81,-99.99,,,0.00,Acu-Link.com,2013-12-16 13:29:00,
2013-12-16 06:45:00,-10.3,-15.0,30.19,ENE,67,0.0,-999.0,79,-99.99,,,0.00,Acu-Link.com,2013-12-16 13:45:00,
2013-12-16 07:00:00,-10.1,-14.3,30.20,ESE,112,0.0,-999.0,81,-99.99,,,0.00,Acu-Link.com,2013-12-16 14:00:00,
2013-12-16 07:15:00,-10.3,-14.7,30.20,NNE,22,0.0,-999.0,80,-99.99,,,0.00,Acu-Link.com,2013-12-16 14:15:00,
2013-12-16 07:30:00,-10.1,-14.3,30.20,ENE,67,0.0,-999.0,81,-99.99,,,0.00,Acu-Link.com,2013-12-16 14:30:00,
2013-12-16 07:46:00,-9.4,-13.6,30.20,East,90,0.0,-999.0,81,-99.99,,,0.00,Acu-Link.com,2013-12-16 14:46:00,
2013-12-16 08:01:00,-9.0,-13.2,30.21,East,90,0.0,-999.0,81,-99.99,,,0.00,Acu-Link.com,2013-12-16 15:01:00,
2013-12-16 08:16:00,-6.2,-9.7,30.23,ENE,67,0.0,-999.0,84,-99.99,,,0.00,Acu-Link.com,2013-12-16 15:16:00,
2013-12-16 08:31:00,-2.7,-6.3,30.22,East,90,0.0,-999.0,84,-99.99,,,0.00,Acu-Link.com,2013-12-16 15:31:00,
2013-12-16 08:47:00,-1.5,-5.6,30.23,East,90,0.0,-999.0,82,-99.99,,,0.00,Acu-Link.com,2013-12-16 15:47:00,
2013-12-16 09:02:00,-0.9,-5.3,30.23,ESE,112,0.0,-999.0,81,-99.99,,,0.00,Acu-Link.com,2013-12-16 16:02:00,
2013-12-16 09:17:00,3.2,-1.0,30.24,East,90,0.0,-999.0,82,-99.99,,,0.00,Acu-Link.com,2013-12-16 16:17:00,
2013-12-16 09:32:00,3.0,-2.3,30.23,East,90,0.0,-999.0,78,-99.99,,,0.00,Acu-Link.com,2013-12-16 16:32:00,
2013-12-16 09:47:00,4.5,-1.9,30.23,East,90,0.0,-999.0,74,-99.99,,,0.00,Acu-Link.com,2013-12-16 16:47:00,
2013-12-16 10:03:00,9.3,1.2,30.22,South,180,0.0,-999.0,69,-99.99,,,0.00,Acu-Link.com,2013-12-16 17:03:00,
2013-12-16 10:18:00,10.6,1.2,30.23,SE,135,0.0,-999.0,65,-99.99,,,0.00,Acu-Link.com,2013-12-16 17:18:00,
2013-12-16 10:33:00,11.1,2.0,30.22,SSE,157,0.0,-999.0,66,-99.99,,,0.00,Acu-Link.com,2013-12-16 17:33:00,
2013-12-16 10:49:00,13.3,4.1,30.22,South,180,0.0,-999.0,66,-99.99,,,0.00,Acu-Link.com,2013-12-16 17:49:00,
2013-12-16 11:04:00,14.0,5.4,30.20,SSE,157,0.0,-999.0,68,-99.99,,,0.00,Acu-Link.com,2013-12-16 18:04:00,
2013-12-16 11:19:00,15.6,6.0,30.20,SE,135,0.0,-999.0,65,-99.99,,,0.00,Acu-Link.com,2013-12-16 18:19:00,
2013-12-16 11:35:00,17.6,8.2,30.19,SSW,202,0.0,-999.0,66,-99.99,,,0.00,Acu-Link.com,2013-12-16 18:35:00,
2013-12-16 11:50:00,18.5,8.7,30.17,South,180,0.0,-999.0,65,-99.99,,,0.00,Acu-Link.com,2013-12-16 18:50:00,
2013-12-16 12:05:00,21.9,11.6,30.16,SSE,157,0.0,-999.0,64,-99.99,,,0.00,Acu-Link.com,2013-12-16 19:05:00,
2013-12-16 12:20:00,21.6,11.0,30.14,SSE,157,0.0,-999.0,63,-99.99,,,0.00,Acu-Link.com,2013-12-16 19:20:00,
2013-12-16 12:36:00,20.1,9.9,30.14,South,180,0.0,-999.0,64,-99.99,,,0.00,Acu-Link.com,2013-12-16 19:36:00,
2013-12-16 12:51:00,21.7,12.5,30.13,SSE,157,0.0,-999.0,67,-99.99,,,0.00,Acu-Link.com,2013-12-16 19:51:00,
2013-12-16 13:06:00,21.7,13.5,30.12,SSE,157,0.0,-999.0,70,-99.99,,,0.00,Acu-Link.com,2013-12-16 20:06:00,
2013-12-16 13:22:00,23.0,13.4,30.11,South,180,0.0,-999.0,66,-99.99,,,0.00,Acu-Link.com,2013-12-16 20:22:00,
2013-12-16 14:34:00,23.5,13.5,30.11,South,180,0.0,-999.0,65,-99.99,,,0.00,Acu-Link.com,2013-12-16 21:34:00,
2013-12-16 14:50:00,23.5,13.8,30.09,ESE,112,0.0,-999.0,66,-99.99,,,0.00,Acu-Link.com,2013-12-16 21:50:00,
2013-12-16 15:05:00,22.5,14.2,30.09,SSE,157,0.0,-999.0,70,-99.99,,,0.00,Acu-Link.com,2013-12-16 22:05:00,
2013-12-16 15:20:00,25.0,15.3,30.09,South,180,0.0,-999.0,66,-99.99,,,0.00,Acu-Link.com,2013-12-16 22:20:00,
2013-12-16 15:38:00,21.7,13.5,30.10,South,180,0.0,-999.0,70,-99.99,,,0.00,Acu-Link.com,2013-12-16 22:38:00,
2013-12-16 15:56:00,22.3,14.0,30.09,SW,225,0.0,-999.0,70,-99.99,,,0.00,Acu-Link.com,2013-12-16 22:56:00,
2013-12-16 16:11:00,21.0,12.8,30.09,NE,45,0.0,-999.0,70,-99.99,,,0.00,Acu-Link.com,2013-12-16 23:11:00,
2013-12-16 16:26:00,21.7,13.8,30.09,NNW,337,0.0,-999.0,71,-99.99,,,0.00,Acu-Link.com,2013-12-16 23:26:00,
2013-12-16 16:43:00,18.9,12.0,30.09,West,270,0.0,-999.0,74,-99.99,,,0.00,Acu-Link.com,2013-12-16 23:43:00,
2013-12-16 16:58:00,16.9,11.2,30.09,WSW,247,0.0,-999.0,78,-99.99,,,0.00,Acu-Link.com,2013-12-16 23:58:00,
2013-12-16 17:13:00,14.0,8.7,30.10,East,90,0.0,-999.0,79,-99.99,,,0.00,Acu-Link.com,2013-12-17 00:13:00,
2013-12-16 17:28:00,11.3,7.9,30.12,NNE,22,0.0,-999.0,86,-99.99,,,0.00,Acu-Link.com,2013-12-17 00:28:00,
2013-12-16 17:44:00,9.5,6.4,30.12,NNE,22,0.0,-999.0,87,-99.99,,,0.00,Acu-Link.com,2013-12-17 00:44:00,
2013-12-16 17:59:00,8.2,5.4,30.13,East,90,0.0,-999.0,88,-99.99,,,0.00,Acu-Link.com,2013-12-17 00:59:00,
2013-12-16 18:14:00,6.1,2.8,30.13,NNE,22,0.0,-999.0,86,-99.99,,,0.00,Acu-Link.com,2013-12-17 01:14:00,
2013-12-16 18:30:00,5.4,3.8,30.12,ENE,67,0.0,-999.0,93,-99.99,,,0.00,Acu-Link.com,2013-12-17 01:30:00,
2013-12-16 18:45:00,4.8,3.2,30.13,North,0,0.0,-999.0,93,-99.99,,,0.00,Acu-Link.com,2013-12-17 01:45:00,
2013-12-16 19:00:00,4.1,2.3,30.15,NE,45,0.0,-999.0,92,-99.99,,,0.00,Acu-Link.com,2013-12-17 02:00:00,
2013-12-16 19:16:00,3.4,1.6,30.14,NE,45,0.0,-999.0,92,-99.99,,,0.00,Acu-Link.com,2013-12-17 02:16:00,
2013-12-16 19:31:00,2.3,0.3,30.14,ESE,112,0.0,-999.0,91,-99.99,,,0.00,Acu-Link.com,2013-12-17 02:31:00,
2013-12-16 19:46:00,1.4,-0.8,30.15,NW,315,0.0,-999.0,90,-99.99,,,0.00,Acu-Link.com,2013-12-17 02:46:00,
2013-12-16 20:02:00,2.5,2.1,30.14,ENE,67,0.0,-999.0,98,-99.99,,,0.00,Acu-Link.com,2013-12-17 03:02:00,
2013-12-16 20:17:00,1.4,-0.6,30.15,ENE,67,0.0,-999.0,91,-99.99,,,0.00,Acu-Link.com,2013-12-17 03:17:00,
2013-12-16 20:32:00,3.4,3.0,30.16,NNE,22,2.7,-999.0,98,-99.99,,,0.00,Acu-Link.com,2013-12-17 03:32:00,
2013-12-16 20:48:00,2.7,1.4,30.17,SW,225,0.0,-999.0,94,-99.99,,,0.00,Acu-Link.com,2013-12-17 03:48:00,
2013-12-16 21:04:00,0.5,-2.4,30.17,NE,45,0.0,-999.0,87,-99.99,,,0.00,Acu-Link.com,2013-12-17 04:04:00,
2013-12-16 21:20:00,0.0,-2.5,30.17,ENE,67,2.2,-999.0,89,-99.99,,,0.00,Acu-Link.com,2013-12-17 04:20:00,
2013-12-16 21:36:00,-1.1,-3.8,30.18,ESE,112,0.0,-999.0,88,-99.99,,,0.00,Acu-Link.com,2013-12-17 04:36:00,
2013-12-16 21:52:00,-1.1,-3.3,30.18,NE,45,3.2,-999.0,90,-99.99,,,0.00,Acu-Link.com,2013-12-17 04:52:00,
2013-12-16 22:09:00,1.0,0.6,30.19,WSW,247,1.7,-999.0,98,-99.99,,,0.00,Acu-Link.com,2013-12-17 05:09:00,
2013-12-16 22:26:00,-1.7,-4.8,30.18,NE,45,0.0,-999.0,86,-99.99,,,0.00,Acu-Link.com,2013-12-17 05:26:00,
2013-12-16 22:41:00,-2.4,-5.5,30.20,WNW,292,0.0,-999.0,86,-99.99,,,0.00,Acu-Link.com,2013-12-17 05:41:00,
2013-12-16 22:57:00,-2.6,-5.5,30.20,ESE,112,0.0,-999.0,87,-99.99,,,0.00,Acu-Link.com,2013-12-17 05:57:00,
2013-12-16 23:13:00,-3.6,-6.7,30.21,NNE,22,0.0,-999.0,86,-99.99,,,0.00,Acu-Link.com,2013-12-17 06:13:00,
2013-12-16 23:29:00,-4.2,-7.5,30.21,NW,315,0.0,-999.0,85,-99.99,,,0.00,Acu-Link.com,2013-12-17 06:29:00,
2013-12-16 23:44:00,-4.4,-7.7,30.21,ENE,67,0.0,-999.0,85,-99.99,,,0.00,Acu-Link.com,2013-12-17 06:44:00,